| time (UTC) | temp C | wind direction | speed KPH | gust KPH | rain 1hr cm | rain 24hr cm | rain mn cm | humidity % | barometer mb |
| 20260905164522 | 21 | 293 | 0.0 | 1.6 | 0.00 | 0.00 | 0.00 | 75 | 1009.9 |
| 20260905163021 | 21 | 269 | 0.0 | 6.4 | 0.00 | 0.00 | 0.00 | 74 | 1009.8 |
| 20260905161520 | 21 | 156 | 1.6 | 14.5 | 0.00 | 0.00 | 0.00 | 72 | 1009.8 |
| 20260905160020 | 21 | 150 | 0.0 | 9.7 | 0.00 | 0.00 | 0.00 | 73 | 1009.9 |
| 20260905154515 | 21 | 212 | 0.0 | 6.4 | 0.00 | 0.00 | 0.00 | 78 | 1009.9 |
| 20260905153024 | 20 | 148 | 1.6 | 9.7 | 0.00 | 0.00 | 0.00 | 78 | 1010.0 |
| 20260905151512 | 20 | 295 | 0.0 | 4.8 | 0.00 | 0.00 | 0.00 | 79 | 1010.0 |
| 20260905150017 | 20 | 298 | 0.0 | 6.4 | 0.00 | 0.00 | 0.00 | 80 | 1009.9 |
| 20260905144513 | 20 | 295 | 0.0 | 3.2 | 0.00 | 0.00 | 0.00 | 82 | 1010.0 |
| 20260905143006 | 19 | 264 | 0.0 | 3.2 | 0.00 | 0.00 | 0.00 | 84 | 1010.1 |
| 20260905141504 | 19 | 295 | 0.0 | 1.6 | 0.00 | 0.00 | 0.00 | 85 | 1010.1 |
| 20260905140001 | 18 | 295 | 0.0 | 1.6 | 0.00 | 0.00 | 0.00 | 86 | 1010.1 |
| 20260905134559 | 18 | 295 | 0.0 | 1.6 | 0.00 | 0.00 | 0.00 | 87 | 1010.0 |
| 20260905133055 | 18 | 299 | 0.0 | 3.2 | 0.00 | 0.00 | 0.00 | 87 | 1009.8 |
| 20260905131602 | 18 | 295 | 0.0 | 3.2 | 0.00 | 0.00 | 0.00 | 88 | 1009.7 |
| 20260905130051 | 17 | 277 | 0.0 | 4.8 | 0.00 | 0.00 | 0.00 | 88 | 1009.5 |
| 20260905124548 | 17 | 274 | 0.0 | 4.8 | 0.00 | 0.00 | 0.00 | 88 | 1009.5 |
| 20260905123104 | 17 | 293 | 0.0 | 3.2 | 0.00 | 0.00 | 0.00 | 89 | 1009.2 |
| 20260905121544 | 17 | 286 | 0.0 | 1.6 | 0.00 | 0.00 | 0.00 | 89 | 1009.0 |
| 20260905120043 | 17 | 279 | 1.6 | 6.4 | 0.00 | 0.00 | 0.00 | 89 | 1009.0 |
| 20260905114545 | 17 | 281 | 0.0 | 4.8 | 0.00 | 0.00 | 0.00 | 90 | 1008.9 |
| 20260905113041 | 17 | 286 | 0.0 | 3.2 | 0.00 | 0.00 | 0.00 | 90 | 1008.7 |
| 20260905111541 | 16 | 298 | 0.0 | 6.4 | 0.00 | 0.00 | 0.00 | 91 | 1008.7 |
| 20260905110040 | 16 | 290 | 0.0 | 3.2 | 0.00 | 0.00 | 0.00 | 92 | 1008.6 |
| 20260905104539 | 16 | 288 | 0.0 | 1.6 | 0.00 | 0.00 | 0.00 | 92 | 1008.6 |
| 20260905103048 | 16 | 293 | 0.0 | 0.0 | 0.00 | 0.00 | 0.00 | 91 | 1008.6 |
| 20260905101539 | 16 | 293 | 0.0 | 0.0 | 0.00 | 0.00 | 0.00 | 92 | 1008.5 |
| 20260905100049 | 16 | 293 | 0.0 | 0.0 | 0.00 | 0.00 | 0.00 | 92 | 1008.4 |
| 20260905094536 | 16 | 293 | 0.0 | 0.0 | 0.00 | 0.00 | 0.00 | 92 | 1008.2 |
| 20260905093035 | 16 | 293 | 0.0 | 0.0 | 0.00 | 0.00 | 0.00 | 92 | 1008.2 |
| 20260905091542 | 15 | 293 | 0.0 | 0.0 | 0.00 | 0.00 | 0.00 | 93 | 1008.1 |
| 20260905090032 | 15 | 293 | 0.0 | 0.0 | 0.00 | 0.00 | 0.00 | 91 | 1008.1 |
| 20260905084534 | 16 | 293 | 0.0 | 0.0 | 0.00 | 0.00 | 0.00 | 92 | 1008.0 |
| 20260905083033 | 15 | 293 | 0.0 | 0.0 | 0.00 | 0.00 | 0.00 | 92 | 1008.0 |
| 20260905081530 | 15 | 293 | 0.0 | 1.6 | 0.00 | 0.00 | 0.00 | 93 | 1008.0 |
| 20260905080048 | 15 | 293 | 0.0 | 1.6 | 0.00 | 0.00 | 0.00 | 92 | 1008.0 |
| 20260905074530 | 16 | 293 | 0.0 | 3.2 | 0.00 | 0.00 | 0.00 | 91 | 1008.0 |
| 20260905073027 | 16 | 294 | 0.0 | 1.6 | 0.00 | 0.00 | 0.00 | 90 | 1008.1 |
| 20260905071527 | 16 | 294 | 0.0 | 3.2 | 0.00 | 0.00 | 0.00 | 90 | 1008.2 |
| 20260905070031 | 16 | 294 | 0.0 | 3.2 | 0.00 | 0.00 | 0.00 | 90 | 1008.2 |
| 20260905064521 | 16 | 295 | 0.0 | 3.2 | 0.00 | 0.00 | 0.00 | 90 | 1008.3 |
| 20260905063018 | 16 | 295 | 0.0 | 3.2 | 0.00 | 0.00 | 0.00 | 89 | 1008.4 |
| 20260905061518 | 17 | 295 | 0.0 | 1.6 | 0.00 | 0.00 | 0.00 | 88 | 1008.6 |
| 20260905060035 | 16 | 295 | 0.0 | 3.2 | 0.00 | 0.00 | 0.00 | 88 | 1008.8 |
| 20260905054514 | 17 | 295 | 0.0 | 4.8 | 0.00 | 0.00 | 0.00 | 87 | 1008.7 |
| 20260905053013 | 17 | 294 | 0.0 | 3.2 | 0.00 | 0.00 | 0.00 | 87 | 1008.9 |
| 20260905051515 | 17 | 294 | 0.0 | 0.0 | 0.00 | 0.00 | 0.00 | 88 | 1008.7 |
| 20260905050017 | 17 | 294 | 0.0 | 1.6 | 0.00 | 0.00 | 0.00 | 88 | 1008.9 |
| 20260905044515 | 17 | 294 | 0.0 | 1.6 | 0.00 | 0.00 | 0.00 | 88 | 1008.8 |
| 20260905043009 | 17 | 294 | 0.0 | 1.6 | 0.00 | 0.00 | 0.00 | 88 | 1008.7 |
| 20260905041507 | 17 | 294 | 0.0 | 0.0 | 0.00 | 0.00 | 0.00 | 88 | 1008.8 |
| 20260905040004 | 17 | 294 | 0.0 | 0.0 | 0.00 | 0.00 | 0.00 | 88 | 1008.8 |
| 20260905034503 | 17 | 294 | 0.0 | 0.0 | 0.00 | 0.00 | 0.00 | 85 | 1008.8 |
| 20260905033003 | 18 | 294 | 0.0 | 4.8 | 0.00 | 0.00 | 0.00 | 84 | 1008.8 |
| 20260905031503 | 18 | 291 | 0.0 | 1.6 | 0.00 | 0.00 | 0.00 | 83 | 1008.9 |
| 20260905030003 | 18 | 291 | 0.0 | 0.0 | 0.00 | 0.00 | 0.00 | 81 | 1008.9 |
| 20260905024502 | 19 | 291 | 0.0 | 1.6 | 0.00 | 0.00 | 0.00 | 79 | 1008.9 |
| 20260905023100 | 19 | 291 | 0.0 | 0.0 | 0.00 | 0.00 | 0.00 | 78 | 1009.0 |
| 20260905021602 | 20 | 291 | 0.0 | 1.6 | 0.00 | 0.00 | 0.00 | 76 | 1009.1 |
| 20260905020058 | 20 | 291 | 0.0 | 3.2 | 0.00 | 0.00 | 0.00 | 75 | 1009.2 |
| 20260905014557 | 20 | 291 | 0.0 | 1.6 | 0.00 | 0.00 | 0.00 | 74 | 1009.2 |
| 20260905013057 | 20 | 291 | 0.0 | 1.6 | 0.00 | 0.00 | 0.00 | 71 | 1009.3 |
| 20260905011615 | 21 | 291 | 0.0 | 1.6 | 0.00 | 0.00 | 0.00 | 71 | 1009.3 |
| 20260905010055 | 20 | 291 | 0.0 | 3.2 | 0.00 | 0.00 | 0.00 | 71 | 1009.3 |
| 20260905004555 | 21 | 291 | 0.0 | 1.6 | 0.00 | 0.00 | 0.00 | 70 | 1009.1 |
| 20260905003057 | 21 | 291 | 1.6 | 4.8 | 0.00 | 0.00 | 0.00 | 69 | 1009.1 |
| 20260905001606 | 21 | 291 | 0.0 | 0.0 | 0.00 | 0.00 | 0.00 | 69 | 1009.1 |
| 20260905000054 | 22 | 291 | 0.0 | 1.6 | 0.00 | 0.00 | 0.00 | 68 | 1008.9 |
| 20260904234554 | 22 | 291 | 0.0 | 1.6 | 0.00 | 0.00 | 0.00 | 65 | 1008.7 |
| 20260904233104 | 22 | 291 | 0.0 | 3.2 | 0.00 | 0.00 | 0.00 | 63 | 1008.6 |
| 20260904231552 | 23 | 281 | 1.6 | 4.8 | 0.00 | 0.00 | 0.00 | 61 | 1008.4 |
| 20260904230051 | 23 | 295 | 3.2 | 8.0 | 0.00 | 0.00 | 0.00 | 60 | 1008.3 |
| 20260904224550 | 23 | 301 | 1.6 | 6.4 | 0.00 | 0.00 | 0.00 | 61 | 1008.3 |
| 20260904223054 | 24 | 295 | 1.6 | 8.0 | 0.00 | 0.00 | 0.00 | 60 | 1008.2 |
| 20260904221554 | 25 | 284 | 1.6 | 6.4 | 0.00 | 0.00 | 0.00 | 60 | 1008.2 |
| 20260904214550 | 25 | 294 | 0.0 | 3.2 | 0.00 | 0.00 | 0.00 | 59 | 1008.1 |
| 20260904213050 | 25 | 293 | 1.6 | 6.4 | 0.00 | 0.00 | 0.00 | 60 | 1008.2 |
| 20260904211547 | 25 | 296 | 1.6 | 9.7 | 0.00 | 0.00 | 0.00 | 60 | 1008.2 |
| 20260904210046 | 26 | 295 | 1.6 | 11.3 | 0.00 | 0.00 | 0.00 | 59 | 1008.2 |
| 20260904204546 | 25 | 276 | 3.2 | 6.4 | 0.00 | 0.00 | 0.00 | 59 | 1008.1 |
| 20260904203048 | 25 | 301 | 1.6 | 8.0 | 0.00 | 0.00 | 0.00 | 59 | 1008.2 |
| 20260904201600 | 26 | 324 | 3.2 | 9.7 | 0.00 | 0.00 | 0.00 | 58 | 1008.3 |
| 20260904200050 | 26 | 285 | 3.2 | 14.5 | 0.00 | 0.00 | 0.00 | 55 | 1008.0 |
| 20260904194542 | 26 | 265 | 3.2 | 12.9 | 0.00 | 0.00 | 0.00 | 52 | 1008.1 |
| 20260904193045 | 27 | 298 | 0.0 | 12.9 | 0.00 | 0.00 | 0.00 | 53 | 1007.8 |
| 20260904191541 | 26 | 303 | 3.2 | 11.3 | 0.00 | 0.00 | 0.00 | 55 | 1007.8 |
| 20260904190037 | 26 | 278 | 3.2 | 9.7 | 0.00 | 0.00 | 0.00 | 51 | 1008.1 |
| 20260904184541 | 26 | 294 | 1.6 | 11.3 | 0.00 | 0.00 | 0.00 | 56 | 1008.2 |
| 20260904183033 | 26 | 168 | 1.6 | 19.3 | 0.00 | 0.00 | 0.00 | 56 | 1008.3 |
| 20260904181536 | 26 | 287 | 6.4 | 14.5 | 0.00 | 0.00 | 0.00 | 56 | 1008.3 |
| 20260904180029 | 26 | 300 | 3.2 | 14.5 | 0.00 | 0.00 | 0.00 | 59 | 1008.4 |
| 20260904174528 | 26 | 264 | 4.8 | 12.9 | 0.00 | 0.00 | 0.00 | 58 | 1008.3 |
| 20260904173024 | 25 | 279 | 1.6 | 11.3 | 0.00 | 0.00 | 0.00 | 61 | 1008.4 |
| 20260904171535 | 25 | 297 | 0.0 | 6.4 | 0.00 | 0.00 | 0.00 | 66 | 1008.4 |
| 20260904170020 | 25 | 298 | 3.2 | 8.0 | 0.00 | 0.00 | 0.00 | 67 | 1008.8 |